EHI
1 6 12 11 7 5 4 5 8 9 8 6 4 3 1 0 0 0 1 2 2 1 1 1 0 0 0 0 0 0 0 1 3 2 1 0 1 0 0 0 0 0 0
1 6 13 13 9 6 6 8 9 9 9 8 6 4 2 1 0 0 0 1 1 1 1 1 0 0 0 0 0 0 1 2 3 2 1 0 1 0 0 0 0 0 0
2 6 11 14 11 9 9 10 11 10 10 9 7 6 4 3 2 1 1 0 0 0 1 1 0 0 0 0 0 0 2 3 2 1 0 0 0 0 0 0 0 0 0
6 7 9 12 13 11 11 12 12 10 9 9 7 6 5 4 3 2 1 0 1 1 0 0 0 0 0 0 0 0 1 2 1 0 0 0 0 0 0 0 0 0 0
9 8 9 12 13 12 11 11 11 9 9 8 7 5 5 4 3 2 1 1 2 2 1 0 0 0 0 0 0 0 0 0 0 0 0 0 0 0 0 0 0 0 0
11 10 9 12 14 11 9 9 9 9 9 8 7 6 5 4 4 3 2 2 3 3 2 1 0 0 0 0 0 0 0 0 0 0 0 0 0 0 0 0 0 0 0
14 11 10 12 13 11 9 8 9 10 10 9 7 6 6 6 6 5 4 3 3 2 2 1 0 0 0 1 1 1 0 0 0 0 0 0 0 0 0 0 0 0 0
13 11 11 12 12 11 9 9 9 10 10 9 7 6 6 6 6 5 4 3 2 2 1 1 1 0 0 1 2 1 0 0 0 0 0 0 0 0 0 0 0 0 0
10 9 10 11 11 11 10 9 8 9 9 8 7 6 5 4 3 3 3 3 2 2 2 2 1 0 0 1 1 1 0 0 0 0 0 0 0 0 0 0 0 0 0
8 8 8 9 10 10 10 8 8 7 7 6 5 4 3 2 1 1 1 2 2 2 2 1 1 0 0 0 0 0 0 0 0 0 0 0 0 0 0 0 0 0 0
6 7 8 9 9 9 8 8 7 5 4 3 3 2 2 1 0 0 1 1 1 1 1 0 0 0 0 0 0 0 0 0 0 0 0 0 0 0 0 0 0 0 0
5 5 7 8 8 7 7 6 5 4 2 1 1 1 1 1 0 0 0 0 0 0 0 0 0 0 0 0 0 0 0 0 0 0 0 0 0 0 0 0 0 0 0
5 5 6 8 7 6 6 4 4 4 3 2 1 1 0 0 0 0 0 0 0 0 0 0 0 0 0 0 0 0 0 0 0 0 0 0 0 0 0 0 0 0 0
6 5 6 7 6 5 5 5 4 4 4 3 1 0 0 1 1 1 0 0 0 0 0 0 0 0 0 0 0 0 0 0 0 0 0 0 0 0 0 0 0 0 0
6 6 6 6 5 4 5 4 3 3 4 3 1 0 0 1 2 1 0 0 0 0 0 0 0 0 0 0 0 0 0 0 0 0 0 0 0 0 0 0 0 0 0
7 7 6 5 4 4 4 3 3 3 3 3 2 1 0 1 1 1 0 0 0 0 0 0 0 0 0 0 0 0 0 0 0 0 0 0 0 0 0 0 0 1 1
7 8 6 4 3 3 3 3 3 3 3 3 3 2 1 0 0 0 0 0 0 0 0 0 0 0 0 0 0 0 0 0 0 0 0 0 0 0 0 0 0 0 0
7 7 6 4 3 3 3 3 3 3 3 3 3 2 1 0 0 0 0 0 0 0 0 0 0 0 0 0 0 0 0 0 0 0 0 0 0 0 0 0 0 0 0
6 6 5 3 3 3 3 3 2 2 2 2 2 2 1 0 0 0 0 0 0 0 0 0 0 0 0 0 0 0 0 0 0 0 0 0 0 0 0 0 0 0 0
5 4 3 2 2 2 2 1 1 1 1 1 1 1 0 0 0 0 0 0 0 0 0 0 0 0 0 0 0 0 0 0 0 0 0 0 0 0 0 0 0 0 0
4 3 2 1 1 1 1 0 0 0 0 0 0 0 0 0 0 0 0 0 0 0 0 0 0 0 0 0 0 0 0 0 0 0 0 0 0 0 0 0 0 0 0
3 2 1 0 0 0 0 0 0 0 0 0 0 0 0 0 0 0 0 0 0 0 0 0 0 0 0 0 0 0 0 0 0 0 0 0 0 0 0 0 0 0 0
3 3 1 0 0 0 0 0 0 0 0 0 0 0 0 0 0 0 0 0 0 0 0 0 0 0 0 0 0 0 0 0 0 0 0 0 0 0 0 0 0 0 0
3 3 2 1 0 0 0 0 0 0 0 0 0 0 0 0 0 0 0 0 0 0 0 0 0 0 0 0 0 0 0 0 0 0 0 0 0 0 0 0 0 0 0
2 3 3 1 0 0 0 0 0 0 0 0 0 0 0 0 0 0 0 0 0 0 0 0 0 0 0 0 0 0 0 0 0 0 0 0 0 0 0 0 0 0 0
1 2 3 2 1 0 0 0 0 0 0 0 0 0 0 0 0 0 0 0 0 0 0 0 0 0 0 0 0 0 0 0 0 0 0 0 0 0 0 0 0 0 0
Wind_Speed
3 4 7 9 10 10 9 9 10 10 11 11 11 11 11 11 11 12 12 12 12 12 12 13 13 13 14 15 15 15 15 15 15 15 15 14 13 14 14 14 12 9 15
5 5 8 10 11 10 10 10 10 10 11 11 11 11 11 12 12 12 13 13 13 13 13 13 13 14 14 14 15 15 15 15 15 15 14 12 12 13 13 13 12 9 14
6 6 7 11 11 11 11 11 11 11 11 11 11 11 12 12 12 13 13 13 13 13 13 14 14 14 14 14 14 15 15 15 15 14 12 7 8 12 13 13 13 14 14
6 5 6 11 12 11 11 11 11 11 11 11 11 11 12 12 12 13 13 13 13 13 13 14 14 14 14 14 14 15 15 14 14 13 7 6 6 11 13 13 13 14 14
5 4 6 12 12 12 11 11 11 11 11 11 11 11 12 12 12 13 13 13 13 13 13 14 14 14 14 14 14 14 14 14 14 11 7 6 5 11 13 13 13 13 13
5 4 6 11 11 11 11 11 11 11 11 11 11 12 12 12 12 13 13 13 13 13 13 14 14 14 14 14 14 14 14 14 11 7 7 6 5 11 13 13 13 13 13
5 4 6 11 11 11 11 11 11 11 11 11 11 11 12 12 12 12 12 13 12 13 13 14 14 14 14 14 14 14 14 14 9 7 6 6 7 13 13 13 13 13 13
5 4 5 10 11 11 11 11 11 11 11 11 11 11 12 12 12 12 12 12 13 13 13 13 14 14 14 14 14 15 14 13 9 8 6 6 10 13 13 13 13 13 13
5 5 4 5 7 9 10 11 11 11 11 11 11 12 11 11 11 11 12 12 13 13 13 13 13 14 14 14 15 15 15 14 8 6 6 5 10 12 13 13 13 12 12
4 4 4 5 5 5 6 9 10 11 11 11 11 12 11 11 10 11 10 11 12 13 13 13 14 14 14 14 15 15 14 11 7 6 4 6 11 12 12 13 12 12 12
4 3 4 5 5 5 5 7 8 9 10 9 9 11 9 5 5 6 8 11 12 13 13 13 14 14 14 13 14 14 11 5 6 5 4 9 11 12 12 12 12 12 11
5 5 4 5 5 5 5 4 4 4 5 5 5 5 5 5 5 6 9 11 12 13 13 14 14 13 10 6 9 10 5 6 5 4 5 10 11 11 12 11 11 11 11
5 5 5 5 5 5 4 4 3 3 3 4 5 5 5 4 4 4 4 5 6 9 7 8 8 6 5 5 5 5 6 5 4 4 5 11 11 11 11 11 11 11 11
5 5 5 6 6 5 5 4 3 3 3 3 3 4 4 3 3 3 3 3 4 3 4 4 4 6 6 6 6 6 7 5 4 4 6 12 12 11 12 12 11 11 11
5 6 5 6 6 6 5 4 4 3 3 3 3 3 4 4 4 3 3 3 3 3 4 4 5 5 6 6 6 7 7 6 6 6 5 12 13 12 12 12 12 12 11
6 6 5 6 7 6 5 4 4 3 4 3 3 3 4 4 4 4 3 3 3 3 3 4 4 5 4 5 6 6 6 6 6 6 5 8 13 13 12 12 12 12 12
6 6 6 5 6 7 6 5 4 3 4 3 3 3 4 4 4 4 4 3 3 3 4 4 5 4 5 5 6 6 5 6 6 6 6 5 6 12 13 12 12 12 12
5 6 7 6 6 6 5 5 4 3 4 3 3 3 4 4 5 5 4 3 3 3 3 4 4 4 4 4 4 4 4 5 6 6 6 6 5 6 9 14 13 13 12
5 7 7 6 7 6 5 4 4 3 3 3 3 3 3 4 5 4 4 3 4 3 3 4 3 3 4 4 4 4 4 4 4 6 6 6 6 6 5 10 14 14 13
3 5 6 6 6 6 5 4 3 3 2 2 2 3 4 4 5 4 4 4 4 4 3 4 4 4 3 3 4 5 4 4 4 5 5 5 5 6 6 7 6 8 13
3 4 6 7 6 6 5 4 3 3 2 2 2 3 3 4 4 5 4 4 3 4 4 4 4 5 3 2 3 3 4 4 4 4 4 4 5 5 5 6 5 4 5
4 5 5 7 7 7 5 4 3 3 3 2 2 2 3 4 4 4 5 4 4 4 4 4 5 3 2 2 2 2 2 2 4 4 3 4 4 4 5 6 5 5 4
4 5 5 6 7 7 6 5 4 4 3 2 2 1 2 3 4 4 4 4 4 4 4 4 4 4 3 1 2 2 3 2 1 2 3 3 4 3 4 4 5 5 5
4 3 4 5 6 7 7 7 7 5 4 3 3 3 3 3 3 4 4 4 4 3 4 3 2 3 4 2 1 2 1 3 2 0 2 3 3 4 4 4 4 4 4
2 3 3 5 5 6 6 7 7 5 3 3 4 4 3 3 3 3 4 4 4 3 4 3 2 3 2 3 2 1 2 2 2 2 1 2 2 2 3 3 2 3 4
1 2 2 4 5 5 6 6 6 6 6 6 5 5 3 2 2 3 4 4 4 4 4 3 3 3 2 3 2 2 2 2 1 2 1 1 2 2 2 2 2 2 3
Wind_Direction
191 188 171 147 135 127 120 112 105 101 96 92 89 85 82 80 79 78 76 76 76 76 76 76 75 74 76 75 74 73 73 72 71 70 66 67 73 78 78 74 72 70 76
160 165 160 144 136 130 123 115 109 105 101 96 92 88 83 80 78 79 78 76 75 76 76 76 75 75 76 75 74 74 73 72 71 67 60 58 66 75 79 78 77 78 77
142 153 157 143 136 131 125 117 112 109 105 100 95 91 86 81 79 79 78 76 74 74 76 76 75 74 75 75 74 73 72 71 68 63 56 47 59 72 77 78 80 79 77
139 145 149 139 136 131 126 120 116 112 108 103 99 94 90 86 81 79 77 75 74 73 74 76 74 74 74 73 73 73 70 69 65 59 49 41 51 70 74 78 78 78 76
130 135 145 137 136 132 128 123 120 116 111 106 100 97 93 88 83 79 77 76 75 73 73 75 74 73 72 71 71 72 70 66 64 56 47 41 47 67 72 75 74 75 76
125 129 143 136 136 132 127 124 120 115 112 107 102 99 94 89 85 81 78 76 75 74 74 75 75 74 72 71 71 71 70 66 61 54 49 43 47 64 69 73 73 73 75
128 128 140 135 135 132 127 123 120 118 114 109 105 101 96 91 88 84 80 76 76 74 74 75 75 74 73 72 70 70 68 64 58 54 49 46 53 63 68 71 72 73 74
121 117 125 137 134 132 129 126 122 117 114 109 104 101 96 93 89 85 82 79 77 76 75 75 76 74 73 73 71 69 66 61 56 51 47 49 56 62 66 70 71 70 70
115 116 114 123 129 129 126 122 117 113 110 107 102 97 93 90 88 86 84 81 78 76 75 76 76 75 73 71 70 68 64 56 50 47 46 47 57 62 63 65 68 67 66
119 121 120 114 112 116 120 118 114 111 107 103 99 93 89 86 84 83 80 81 79 77 74 75 77 75 73 70 68 64 58 52 46 42 41 51 58 62 62 61 61 64 64
138 134 131 122 116 113 114 112 109 105 101 97 94 91 84 75 75 72 73 79 78 77 74 74 77 74 71 67 63 59 54 43 40 38 38 53 58 61 61 60 59 60 62
172 161 144 133 127 121 116 111 102 96 95 89 89 90 85 79 70 68 69 75 76 74 71 69 69 67 63 59 57 53 47 40 40 33 41 53 58 59 59 58 57 57 57
177 168 155 143 136 131 124 119 108 102 99 92 95 94 93 85 76 65 65 60 63 65 61 59 56 50 53 55 56 52 46 43 37 27 34 47 55 57 58 56 55 54 54
174 172 160 149 142 136 130 127 124 119 113 107 105 105 104 96 84 74 72 63 59 62 68 59 61 54 54 55 60 59 50 43 33 25 36 44 50 55 56 54 54 53 52
182 179 165 158 150 143 137 137 129 131 127 124 117 107 109 110 103 90 82 73 68 70 74 71 67 62 56 54 56 58 53 46 38 31 27 39 44 49 52 52 51 51 50
186 182 169 165 156 148 145 143 138 137 131 126 121 117 114 116 114 106 95 84 75 74 76 78 77 69 59 57 55 52 52 48 43 37 31 31 38 42 48 49 48 48 48
185 177 171 168 157 154 149 145 138 138 133 129 126 120 115 116 120 115 106 95 84 83 86 86 79 74 67 59 54 48 49 48 46 40 35 32 28 33 40 44 44 44 43
177 176 173 168 164 159 150 142 138 137 134 131 130 124 119 118 122 119 114 106 98 91 92 94 85 80 67 60 54 46 44 47 47 45 43 40 35 29 31 40 40 40 39
184 173 171 166 168 159 144 132 125 126 126 129 129 126 127 126 125 123 120 116 109 100 94 95 85 88 83 68 61 54 44 46 41 47 47 43 40 37 31 35 36 36 35
176 167 167 163 162 149 135 121 113 106 110 113 124 130 130 129 128 123 119 117 113 109 97 97 97 81 87 82 73 56 42 39 43 44 42 41 39 39 34 31 27 23 28
159 167 168 162 159 153 148 146 142 142 131 119 119 124 125 128 129 127 125 122 116 116 117 119 111 95 79 82 79 60 38 37 46 39 36 42 38 34 34 29 26 23 15
179 180 172 170 165 164 162 149 138 133 133 131 118 119 121 128 134 136 137 136 132 127 128 128 121 107 87 46 90 96 55 21 22 23 28 44 33 28 33 28 26 27 19
183 190 183 176 168 163 150 132 119 104 95 112 128 141 128 134 137 137 141 138 141 141 147 148 140 127 131 56 52 113 135 174 336 356 15 31 26 27 24 22 28 21 22
196 186 181 170 165 160 154 157 156 158 161 173 160 156 141 138 141 139 141 138 139 139 146 156 133 135 138 132 70 51 94 142 145 15 347 9 16 21 15 18 19 16 17
176 169 169 159 159 160 162 166 164 161 151 140 137 142 145 138 140 141 143 141 141 142 148 146 132 129 136 140 138 122 84 67 101 145 230 327 352 1 2 4 8 12 7
119 127 138 152 157 162 163 164 166 163 153 149 153 158 156 143 140 143 141 144 146 147 152 153 143 136 131 123 124 134 143 144 149 141 158 286 319 330 344 355 1 1 3